Year,Month,Day,Hour,Minute,Value (Times are PST for temperature in C)
2015,09,17,00,00,12.20
2015,09,17,00,01,12.20
2015,09,17,00,02,12.20
2015,09,17,00,03,12.20
2015,09,17,00,04,12.20
2015,09,17,00,05,12.20
2015,09,17,00,06,12.20
2015,09,17,00,07,12.10
2015,09,17,00,08,12.10
2015,09,17,00,09,12.10
2015,09,17,00,10,12.10
2015,09,17,00,11,12.10
2015,09,17,00,12,12.10
2015,09,17,00,13,12.10
2015,09,17,00,14,12.10
2015,09,17,00,15,12.10
2015,09,17,00,16,12.10
2015,09,17,00,17,12.10
2015,09,17,00,18,12.10
2015,09,17,00,19,12.10
2015,09,17,00,20,12.10
2015,09,17,00,21,12.10
2015,09,17,00,22,12.10
2015,09,17,00,23,12.10
2015,09,17,00,24,12.10
2015,09,17,00,25,12.10
2015,09,17,00,26,12.10
2015,09,17,00,27,12.10
2015,09,17,00,28,12.10
2015,09,17,00,29,12.10
2015,09,17,00,30,12.10
2015,09,17,00,31,12.10
2015,09,17,00,32,12.10
2015,09,17,00,33,12.10
2015,09,17,00,34,12.10
2015,09,17,00,35,12.10
2015,09,17,00,36,12.10
2015,09,17,00,37,12.10
2015,09,17,00,38,12.10
2015,09,17,00,39,12.10
2015,09,17,00,40,12.10
2015,09,17,00,41,12.10
2015,09,17,00,42,12.10
2015,09,17,00,43,12.10
2015,09,17,00,44,12.10
2015,09,17,00,45,12.10
2015,09,17,00,46,12.10
2015,09,17,00,47,12.10
2015,09,17,00,48,12.10
2015,09,17,00,49,12.10
2015,09,17,00,50,12.10
2015,09,17,00,51,12.10
2015,09,17,00,52,12.10
2015,09,17,00,53,12.10
2015,09,17,00,54,12.10
2015,09,17,00,55,12.10
2015,09,17,00,56,12.10
2015,09,17,00,57,12.10
2015,09,17,00,58,12.10
2015,09,17,00,59,12.10
2015,09,17,01,00,12.10
2015,09,17,01,01,12.10
2015,09,17,01,02,12.10
2015,09,17,01,03,12.10
2015,09,17,01,04,12.10
2015,09,17,01,05,12.10
2015,09,17,01,06,12.10
2015,09,17,01,07,12.10
2015,09,17,01,08,12.10
2015,09,17,01,09,12.10
2015,09,17,01,10,12.10
2015,09,17,01,11,12.10
2015,09,17,01,12,12.10
2015,09,17,01,13,12.10
2015,09,17,01,14,12.10
2015,09,17,01,15,12.10
2015,09,17,01,16,12.10
2015,09,17,01,17,12.10
2015,09,17,01,18,12.10
2015,09,17,01,19,12.10
2015,09,17,01,20,12.10
2015,09,17,01,21,12.10
2015,09,17,01,22,12.10
2015,09,17,01,23,12.10
2015,09,17,01,24,12.10
2015,09,17,01,25,12.10
2015,09,17,01,26,12.10
2015,09,17,01,27,12.10
2015,09,17,01,28,12.10
2015,09,17,01,29,12.10
2015,09,17,01,30,12.10
2015,09,17,01,31,12.10
2015,09,17,01,32,12.10
2015,09,17,01,33,12.10
2015,09,17,01,34,12.10
2015,09,17,01,35,12.10
2015,09,17,01,36,12.10
2015,09,17,01,37,12.10
2015,09,17,01,38,12.10
2015,09,17,01,39,12.10
2015,09,17,01,40,12.10
2015,09,17,01,41,12.10
2015,09,17,01,42,12.10
2015,09,17,01,43,12.10
2015,09,17,01,44,12.10
2015,09,17,01,45,12.10
2015,09,17,01,46,12.10
2015,09,17,01,47,12.10
2015,09,17,01,48,12.10
2015,09,17,01,49,12.10
2015,09,17,01,50,12.10
2015,09,17,01,51,12.10
2015,09,17,01,52,12.10
2015,09,17,01,53,12.10
2015,09,17,01,54,12.10
2015,09,17,01,55,12.10
2015,09,17,01,56,12.10
2015,09,17,01,57,12.10
2015,09,17,01,58,12.10
2015,09,17,01,59,12.10
2015,09,17,02,00,12.10
2015,09,17,02,01,12.10
2015,09,17,02,02,12.10
2015,09,17,02,03,12.10
2015,09,17,02,04,12.10
2015,09,17,02,05,12.00
2015,09,17,02,06,12.10
2015,09,17,02,07,12.00
2015,09,17,02,08,12.00
2015,09,17,02,09,12.00
2015,09,17,02,10,12.00
2015,09,17,02,11,12.00
2015,09,17,02,12,12.00
2015,09,17,02,13,12.00
2015,09,17,02,14,12.00
2015,09,17,02,15,12.00
2015,09,17,02,16,12.00
2015,09,17,02,17,12.00
2015,09,17,02,18,12.00
2015,09,17,02,19,12.00
2015,09,17,02,20,12.00
2015,09,17,02,21,12.00
2015,09,17,02,22,12.00
2015,09,17,02,23,12.00
2015,09,17,02,24,12.00
2015,09,17,02,25,12.00
2015,09,17,02,26,12.00
2015,09,17,02,27,12.00
2015,09,17,02,28,12.00
2015,09,17,02,29,12.00
2015,09,17,02,30,12.00
2015,09,17,02,31,12.00
2015,09,17,02,32,12.00
2015,09,17,02,33,12.00
2015,09,17,02,34,12.00
2015,09,17,02,35,12.00
2015,09,17,02,36,12.00
2015,09,17,02,37,12.00
2015,09,17,02,38,12.00
2015,09,17,02,39,12.00
2015,09,17,02,40,12.00
2015,09,17,02,41,12.00
2015,09,17,02,42,12.00
2015,09,17,02,43,12.00
2015,09,17,02,44,11.90
2015,09,17,02,45,11.90
2015,09,17,02,46,11.90
2015,09,17,02,47,11.90
2015,09,17,02,48,11.90
2015,09,17,02,49,11.90
2015,09,17,02,50,11.90
2015,09,17,02,51,11.90
2015,09,17,02,52,11.90
2015,09,17,02,53,11.90
2015,09,17,02,54,11.90
2015,09,17,02,55,11.90
2015,09,17,02,56,11.90
2015,09,17,02,57,11.90
2015,09,17,02,58,11.90
2015,09,17,02,59,11.90
2015,09,17,03,00,11.90
2015,09,17,03,01,11.90
2015,09,17,03,02,11.90
2015,09,17,04,02,11.60
2015,09,17,04,03,11.60
2015,09,17,04,04,11.60
2015,09,17,04,05,11.60
2015,09,17,04,06,11.60
2015,09,17,04,07,11.60
2015,09,17,04,08,11.60
2015,09,17,04,09,11.60
2015,09,17,04,10,11.60
2015,09,17,04,11,11.60
2015,09,17,04,12,11.60
2015,09,17,04,13,11.60
2015,09,17,04,14,11.60
2015,09,17,04,15,11.60
2015,09,17,04,16,11.60
2015,09,17,04,17,11.60
2015,09,17,04,18,11.60
2015,09,17,04,19,11.50
2015,09,17,04,20,11.50
2015,09,17,04,21,11.50
2015,09,17,04,22,11.50
2015,09,17,04,23,11.50
2015,09,17,04,24,11.50
2015,09,17,04,25,11.50
2015,09,17,04,26,11.50
2015,09,17,04,27,11.50
2015,09,17,04,28,11.50
2015,09,17,04,29,11.50
2015,09,17,04,30,11.50
2015,09,17,04,31,11.50
2015,09,17,04,32,11.50
2015,09,17,04,33,11.50
2015,09,17,04,34,11.50
2015,09,17,04,35,11.50
2015,09,17,04,36,11.50
2015,09,17,04,37,11.50
2015,09,17,04,38,11.50
2015,09,17,04,39,11.50
2015,09,17,04,40,11.40
2015,09,17,04,41,11.50
2015,09,17,04,42,11.50
2015,09,17,04,43,11.40
2015,09,17,04,44,11.40
2015,09,17,04,45,11.40
2015,09,17,04,46,11.50
2015,09,17,04,47,11.40
2015,09,17,04,48,11.40
2015,09,17,04,49,11.50
2015,09,17,04,50,11.50
2015,09,17,04,51,11.50
2015,09,17,04,52,11.50
2015,09,17,04,53,11.50
2015,09,17,04,54,11.50
2015,09,17,04,55,11.50
2015,09,17,04,56,11.50
2015,09,17,04,57,11.50
2015,09,17,04,58,11.50
2015,09,17,04,59,11.50
2015,09,17,05,00,11.50
2015,09,17,05,01,11.50
2015,09,17,05,02,11.60
2015,09,17,05,03,11.60
2015,09,17,05,04,11.60
2015,09,17,05,05,11.60
2015,09,17,05,06,11.60
2015,09,17,05,07,11.60
2015,09,17,05,08,11.60
2015,09,17,05,09,11.60
2015,09,17,05,10,11.60
2015,09,17,05,11,11.60
2015,09,17,05,12,11.60
2015,09,17,05,13,11.60
2015,09,17,05,14,11.60
2015,09,17,05,15,11.60
2015,09,17,05,16,11.60
2015,09,17,05,17,11.60
2015,09,17,05,18,11.60
2015,09,17,05,19,11.60
2015,09,17,05,20,11.60
2015,09,17,05,21,11.60
2015,09,17,05,22,11.60
2015,09,17,05,23,11.60
2015,09,17,05,24,11.60
2015,09,17,05,25,11.60
2015,09,17,05,26,11.60
2015,09,17,05,27,11.60
2015,09,17,05,28,11.60
2015,09,17,05,29,11.60
2015,09,17,05,30,11.60
2015,09,17,05,31,11.60
2015,09,17,05,32,11.60
2015,09,17,05,33,11.60
2015,09,17,05,34,11.60
2015,09,17,05,35,11.60
2015,09,17,05,36,11.60
2015,09,17,05,37,11.60
2015,09,17,05,38,11.60
2015,09,17,05,39,11.60
2015,09,17,05,40,11.60
2015,09,17,05,41,11.60
2015,09,17,05,42,11.60
2015,09,17,05,43,11.60
2015,09,17,05,44,11.60
2015,09,17,05,45,11.60
2015,09,17,05,46,11.60
2015,09,17,05,47,11.60
2015,09,17,05,48,11.60
2015,09,17,05,49,11.60
2015,09,17,05,50,11.60
2015,09,17,05,51,11.60
2015,09,17,05,52,11.60
2015,09,17,05,53,11.60
2015,09,17,05,54,11.60
2015,09,17,05,55,11.60
2015,09,17,05,56,11.60
2015,09,17,05,57,11.60
2015,09,17,05,58,11.60
2015,09,17,05,59,11.60
2015,09,17,06,00,11.60
2015,09,17,06,01,11.60
2015,09,17,06,02,11.60
2015,09,17,06,03,11.60
2015,09,17,06,04,11.60
2015,09,17,06,05,11.60
2015,09,17,06,06,11.60
2015,09,17,06,07,11.60
2015,09,17,06,08,11.60
2015,09,17,06,09,11.60
2015,09,17,06,10,11.60
2015,09,17,06,11,11.60
2015,09,17,06,12,11.60
2015,09,17,06,13,11.60
2015,09,17,06,14,11.60
2015,09,17,06,15,11.60
2015,09,17,06,16,11.60
2015,09,17,06,17,11.60
2015,09,17,06,18,11.60
2015,09,17,06,19,11.60
2015,09,17,06,20,11.60
2015,09,17,06,21,11.60
2015,09,17,06,22,11.60
2015,09,17,06,23,11.60
2015,09,17,06,24,11.60
2015,09,17,06,25,11.60
2015,09,17,06,26,11.60
2015,09,17,06,27,11.60
2015,09,17,06,28,11.60
2015,09,17,06,29,11.60
2015,09,17,06,30,11.60
2015,09,17,06,31,11.60
2015,09,17,06,32,11.60
2015,09,17,06,33,11.60
2015,09,17,06,34,11.60
2015,09,17,06,35,11.60
2015,09,17,06,36,11.60
2015,09,17,06,37,11.60
2015,09,17,06,38,11.60
2015,09,17,06,39,11.60
2015,09,17,06,40,11.60
2015,09,17,06,41,11.70
2015,09,17,06,42,11.70
2015,09,17,06,43,11.70
2015,09,17,06,44,11.70
2015,09,17,06,45,11.70
2015,09,17,06,46,11.70
2015,09,17,06,47,11.70
2015,09,17,06,48,11.60
2015,09,17,06,49,11.70
2015,09,17,06,50,11.70
2015,09,17,06,51,11.70
2015,09,17,06,52,11.70
2015,09,17,06,53,11.70
2015,09,17,06,54,11.70
2015,09,17,06,55,11.70
2015,09,17,06,56,11.70
2015,09,17,06,57,11.70
2015,09,17,06,58,11.70
2015,09,17,06,59,11.70
2015,09,17,07,00,11.70
2015,09,17,07,01,11.70
2015,09,17,07,02,11.70
2015,09,17,07,03,11.70
2015,09,17,07,04,11.70
2015,09,17,07,05,11.70
2015,09,17,07,06,11.70
2015,09,17,07,07,11.70
2015,09,17,07,08,11.70
2015,09,17,07,09,11.70
2015,09,17,07,10,11.70
2015,09,17,07,11,11.70
2015,09,17,07,12,11.80
2015,09,17,07,13,11.80
2015,09,17,07,14,11.80
2015,09,17,07,15,11.80
2015,09,17,07,16,11.80
2015,09,17,07,17,11.80
2015,09,17,07,18,11.80
2015,09,17,07,19,11.80
2015,09,17,07,20,11.80
2015,09,17,07,21,11.80
2015,09,17,07,22,11.80
2015,09,17,07,23,11.80
2015,09,17,07,24,11.80
2015,09,17,07,25,11.80
2015,09,17,07,26,11.80
2015,09,17,07,27,11.80
2015,09,17,07,28,11.80
2015,09,17,07,29,11.80
2015,09,17,07,30,11.80
2015,09,17,07,31,11.80
2015,09,17,07,32,11.80
2015,09,17,07,33,11.80
2015,09,17,07,34,11.80
2015,09,17,07,35,11.90
2015,09,17,07,36,11.80
2015,09,17,07,37,11.80
2015,09,17,07,38,11.80
2015,09,17,07,39,11.80
2015,09,17,07,40,11.90
2015,09,17,07,41,11.90
2015,09,17,07,42,11.90
2015,09,17,07,43,11.90
2015,09,17,07,44,11.90
2015,09,17,07,45,11.90
2015,09,17,07,46,11.90
2015,09,17,07,47,11.90
2015,09,17,07,48,11.90
2015,09,17,07,49,11.90
2015,09,17,07,50,11.90
2015,09,17,07,51,11.90
2015,09,17,07,52,11.90
2015,09,17,07,53,11.90
2015,09,17,07,54,11.90
2015,09,17,07,55,11.90
2015,09,17,07,56,11.90
2015,09,17,07,57,11.90
2015,09,17,07,58,11.90
2015,09,17,07,59,11.90
2015,09,17,08,00,11.90
2015,09,17,08,01,11.90
2015,09,17,08,02,11.90
2015,09,17,08,03,11.90
2015,09,17,08,04,11.90
2015,09,17,08,05,11.90
2015,09,17,08,06,11.90
2015,09,17,08,07,11.90
2015,09,17,08,08,11.90
2015,09,17,08,09,11.90
2015,09,17,08,10,11.90
2015,09,17,08,11,11.90
2015,09,17,08,12,11.90
2015,09,17,08,13,11.90
2015,09,17,08,14,11.90
2015,09,17,08,15,11.90
2015,09,17,08,16,11.90
2015,09,17,08,17,11.90
2015,09,17,08,18,11.90
2015,09,17,08,19,11.90
2015,09,17,08,20,11.90
2015,09,17,08,21,11.90
2015,09,17,08,22,11.90
2015,09,17,08,23,11.90
2015,09,17,08,24,11.90
2015,09,17,08,25,11.90
2015,09,17,08,26,11.90
2015,09,17,08,27,11.90
2015,09,17,08,28,11.90
2015,09,17,08,29,11.80
2015,09,17,08,30,11.80
2015,09,17,08,31,11.80
2015,09,17,08,32,11.80
2015,09,17,08,33,11.70
2015,09,17,08,34,11.70
2015,09,17,08,35,11.70
2015,09,17,08,36,11.70
2015,09,17,08,37,11.70
2015,09,17,08,38,11.70
2015,09,17,08,39,11.70
2015,09,17,08,40,11.70
2015,09,17,08,41,11.60
2015,09,17,08,42,11.60
2015,09,17,08,43,11.60
2015,09,17,08,44,11.60
2015,09,17,08,45,11.60
2015,09,17,08,46,11.60
2015,09,17,08,47,11.60
2015,09,17,08,48,11.60
2015,09,17,08,49,11.60
2015,09,17,08,50,11.60
2015,09,17,08,51,11.60
2015,09,17,08,52,11.50
2015,09,17,08,53,11.50
2015,09,17,08,54,11.50
2015,09,17,08,55,11.50
2015,09,17,08,56,11.50
2015,09,17,08,57,11.40
2015,09,17,08,58,11.50
2015,09,17,08,59,11.40
2015,09,17,09,00,11.40
2015,09,17,09,01,11.40
2015,09,17,09,02,11.40
2015,09,17,09,03,11.40
2015,09,17,09,04,11.40
2015,09,17,09,05,11.50
2015,09,17,09,06,11.50
2015,09,17,09,07,11.50
2015,09,17,09,08,11.50
2015,09,17,09,09,11.50
2015,09,17,09,10,11.50
2015,09,17,09,11,11.50
2015,09,17,09,12,11.40
2015,09,17,09,13,11.40
2015,09,17,09,14,11.40
2015,09,17,09,15,11.50
2015,09,17,09,16,11.50
2015,09,17,09,17,11.50
2015,09,17,09,18,11.50
2015,09,17,09,19,11.50
2015,09,17,09,20,11.50
2015,09,17,09,21,11.50
2015,09,17,09,22,11.50
2015,09,17,09,23,11.50
2015,09,17,09,24,11.50
2015,09,17,09,25,11.50
2015,09,17,09,26,11.60
2015,09,17,09,27,11.60
2015,09,17,09,28,11.60
2015,09,17,09,29,11.60
2015,09,17,09,30,11.60
2015,09,17,09,31,11.60
2015,09,17,09,32,11.50
2015,09,17,09,33,11.50
2015,09,17,09,34,11.50
2015,09,17,09,35,11.50
2015,09,17,09,36,11.50
2015,09,17,09,37,11.50
2015,09,17,09,38,11.50
2015,09,17,09,39,11.50
2015,09,17,09,40,11.50
2015,09,17,09,41,11.60
2015,09,17,09,42,11.60
2015,09,17,09,43,11.60
2015,09,17,09,44,11.60
2015,09,17,09,45,11.60
2015,09,17,09,46,11.60
2015,09,17,09,47,11.60
2015,09,17,09,48,11.60
2015,09,17,09,49,11.60
2015,09,17,09,50,11.60
2015,09,17,09,51,11.60
2015,09,17,09,52,11.60
2015,09,17,09,53,11.60
2015,09,17,09,54,11.60
2015,09,17,09,55,11.60
2015,09,17,09,56,11.60
2015,09,17,09,57,11.60
2015,09,17,09,58,11.60
2015,09,17,09,59,11.60
2015,09,17,10,00,11.60
2015,09,17,10,01,11.60
2015,09,17,10,02,11.60
2015,09,17,10,03,11.60
2015,09,17,10,04,11.60
2015,09,17,10,05,11.70
2015,09,17,10,06,11.70
2015,09,17,10,07,11.70
2015,09,17,10,08,11.70
2015,09,17,10,09,11.80
2015,09,17,10,10,11.80
2015,09,17,10,11,11.80
2015,09,17,10,12,11.90
2015,09,17,10,13,11.90
2015,09,17,10,14,11.90
2015,09,17,10,15,11.90
2015,09,17,10,16,11.90
2015,09,17,10,17,11.90
2015,09,17,10,18,11.90
2015,09,17,10,19,11.90
2015,09,17,10,20,11.90
2015,09,17,10,21,11.90
2015,09,17,10,22,11.90
2015,09,17,10,23,12.00
2015,09,17,10,24,12.00
2015,09,17,10,25,12.00
2015,09,17,10,26,12.00
2015,09,17,10,27,12.00
2015,09,17,10,28,12.00
2015,09,17,10,29,12.10
2015,09,17,10,30,12.10
2015,09,17,10,31,12.10
2015,09,17,10,32,12.10
2015,09,17,10,33,12.10
2015,09,17,10,34,12.10
2015,09,17,10,35,12.10
2015,09,17,10,36,12.10
2015,09,17,10,37,12.10
2015,09,17,10,38,12.10
2015,09,17,10,39,12.10
2015,09,17,10,40,12.10
2015,09,17,10,41,12.20
2015,09,17,10,42,12.20
2015,09,17,10,43,12.20
2015,09,17,10,44,12.20
2015,09,17,10,45,12.20
2015,09,17,10,46,12.20
2015,09,17,10,47,12.20
2015,09,17,10,48,12.20
2015,09,17,10,49,12.20
2015,09,17,10,50,12.20
2015,09,17,10,51,12.20
2015,09,17,10,52,12.20
2015,09,17,10,53,12.20
2015,09,17,10,54,12.20
2015,09,17,10,55,12.20
2015,09,17,10,56,12.20
2015,09,17,10,57,12.20
2015,09,17,10,58,12.20
2015,09,17,10,59,12.20
2015,09,17,11,00,12.20
2015,09,17,11,01,12.20
2015,09,17,11,02,12.20
2015,09,17,11,03,12.20
2015,09,17,11,04,12.20
2015,09,17,11,05,12.20
2015,09,17,11,06,12.20
2015,09,17,11,07,12.20
2015,09,17,11,08,12.20
2015,09,17,11,09,12.20
2015,09,17,11,10,12.20
2015,09,17,11,11,12.20
2015,09,17,11,12,12.20
2015,09,17,11,13,12.20
2015,09,17,11,14,12.20
2015,09,17,11,15,12.20
2015,09,17,11,16,12.20
2015,09,17,11,17,12.20
2015,09,17,11,18,12.20
2015,09,17,11,19,12.20
2015,09,17,11,20,12.20
2015,09,17,11,21,12.30
2015,09,17,11,22,12.30
2015,09,17,11,23,12.30
2015,09,17,11,24,12.30
2015,09,17,11,25,12.30
2015,09,17,11,26,12.30
2015,09,17,11,27,12.30
2015,09,17,11,28,12.30
2015,09,17,11,29,12.30
2015,09,17,11,30,12.30
2015,09,17,11,31,12.30
2015,09,17,11,32,12.30
2015,09,17,11,33,12.30
2015,09,17,11,34,12.40
2015,09,17,11,35,12.40
2015,09,17,11,36,12.40
2015,09,17,11,37,12.40
2015,09,17,11,38,12.50
2015,09,17,11,39,12.50
2015,09,17,11,40,12.50
2015,09,17,11,41,12.50
2015,09,17,11,42,12.60
2015,09,17,11,43,12.60
2015,09,17,11,44,12.60
2015,09,17,11,45,12.70
2015,09,17,11,46,12.70
2015,09,17,11,47,12.70
2015,09,17,11,48,12.70
2015,09,17,11,49,12.70
2015,09,17,11,50,12.70
2015,09,17,11,51,12.70
2015,09,17,11,52,12.70
2015,09,17,11,53,12.70
2015,09,17,11,54,12.70
2015,09,17,11,55,12.70
2015,09,17,11,56,12.70
2015,09,17,11,57,12.80
2015,09,17,11,58,12.80
2015,09,17,11,59,12.80
2015,09,17,12,00,12.80
2015,09,17,12,01,12.80
2015,09,17,12,02,12.80
2015,09,17,12,03,12.80
2015,09,17,12,04,12.80
2015,09,17,12,05,12.80
2015,09,17,12,06,12.80
2015,09,17,12,07,12.70
2015,09,17,12,08,12.70
2015,09,17,12,09,12.70
2015,09,17,12,10,12.70
2015,09,17,12,11,12.70
2015,09,17,12,12,12.70
2015,09,17,12,13,12.70
2015,09,17,12,14,12.70
2015,09,17,12,15,12.60
2015,09,17,12,16,12.60
2015,09,17,12,17,12.60
2015,09,17,12,18,12.60
2015,09,17,12,19,12.60
2015,09,17,12,20,12.60
2015,09,17,12,21,12.60
2015,09,17,12,22,12.60
2015,09,17,12,23,12.60
2015,09,17,12,24,12.60
2015,09,17,12,25,12.60
2015,09,17,12,26,12.60
2015,09,17,12,27,12.60
2015,09,17,12,28,12.60
2015,09,17,12,29,12.60
2015,09,17,12,30,12.60
2015,09,17,12,31,12.60
2015,09,17,12,32,12.60
2015,09,17,12,33,12.60
2015,09,17,12,34,12.70
2015,09,17,12,35,12.70
2015,09,17,12,36,12.70
2015,09,17,12,37,12.70
2015,09,17,12,38,12.70
2015,09,17,12,39,12.70
2015,09,17,12,40,12.70
2015,09,17,12,41,12.70
2015,09,17,12,42,12.70
2015,09,17,12,43,12.70
2015,09,17,12,44,12.70
2015,09,17,12,45,12.70
2015,09,17,12,46,12.70
2015,09,17,12,47,12.70
2015,09,17,12,48,12.70
2015,09,17,12,49,12.70
2015,09,17,12,50,12.70
2015,09,17,12,51,12.70
2015,09,17,12,52,12.70
2015,09,17,12,53,12.70
2015,09,17,12,54,12.70
2015,09,17,12,55,12.70
2015,09,17,12,56,12.70
2015,09,17,12,57,12.70
2015,09,17,12,58,12.70
2015,09,17,12,59,12.70
2015,09,17,13,00,12.70
2015,09,17,13,01,12.70
2015,09,17,13,02,12.70
2015,09,17,13,03,12.70
2015,09,17,13,04,12.80
2015,09,17,13,05,12.80
2015,09,17,13,06,12.80
2015,09,17,13,07,12.80
2015,09,17,13,08,12.80
2015,09,17,13,09,12.90
2015,09,17,13,10,12.90
2015,09,17,13,11,12.90
2015,09,17,13,12,12.90
2015,09,17,13,13,12.90
2015,09,17,13,14,13.00
2015,09,17,13,15,13.00
2015,09,17,13,16,13.10
2015,09,17,13,17,13.10
2015,09,17,13,18,13.10
2015,09,17,13,19,13.10
2015,09,17,13,20,13.10
2015,09,17,13,21,13.10
2015,09,17,13,22,13.10
2015,09,17,13,23,13.20
2015,09,17,13,24,13.20
2015,09,17,13,25,13.20
2015,09,17,13,26,13.20
2015,09,17,13,27,13.10
2015,09,17,13,28,13.10
2015,09,17,13,29,13.10
2015,09,17,13,30,13.10
2015,09,17,13,31,13.10
2015,09,17,13,32,13.10
2015,09,17,13,33,13.10
2015,09,17,13,34,13.10
2015,09,17,13,35,13.10
2015,09,17,13,36,13.20
2015,09,17,13,37,13.20
2015,09,17,13,38,13.20
2015,09,17,13,39,13.20
2015,09,17,13,40,13.20
2015,09,17,13,41,13.30
2015,09,17,13,42,13.30
2015,09,17,13,43,13.40
2015,09,17,13,44,13.50
2015,09,17,13,45,13.50
2015,09,17,13,46,13.60
2015,09,17,13,47,13.60
2015,09,17,13,48,13.60
2015,09,17,13,49,13.60
2015,09,17,13,50,13.60
2015,09,17,13,51,13.60
2015,09,17,13,52,13.70
2015,09,17,13,53,13.70
2015,09,17,13,54,13.70
2015,09,17,13,55,13.80
2015,09,17,13,56,13.80
2015,09,17,13,57,13.90
2015,09,17,13,58,13.90
2015,09,17,13,59,13.90
2015,09,17,14,00,14.00
2015,09,17,14,01,13.90
2015,09,17,14,02,13.90
2015,09,17,14,03,13.90
2015,09,17,14,04,13.90
2015,09,17,14,05,13.90
2015,09,17,14,06,13.90
2015,09,17,14,07,13.90
2015,09,17,14,08,13.90
2015,09,17,14,09,13.90
2015,09,17,14,10,13.90
2015,09,17,14,11,13.90
2015,09,17,14,12,13.90
2015,09,17,14,13,13.80
2015,09,17,14,14,13.80
2015,09,17,14,15,13.80
2015,09,17,14,16,13.80
2015,09,17,14,17,13.80
2015,09,17,14,18,13.80
2015,09,17,14,19,13.90
2015,09,17,14,20,13.90
2015,09,17,14,21,13.90
2015,09,17,14,22,13.90
2015,09,17,14,23,13.90
2015,09,17,14,24,13.80
2015,09,17,14,25,13.80
2015,09,17,14,26,13.80
2015,09,17,14,27,13.90
2015,09,17,14,28,13.90
2015,09,17,14,29,13.90
2015,09,17,14,30,13.90
2015,09,17,14,31,13.90
2015,09,17,14,32,14.00
2015,09,17,14,33,14.00
2015,09,17,14,34,14.00
2015,09,17,14,35,14.00
2015,09,17,14,36,13.90
2015,09,17,14,37,13.90
2015,09,17,14,38,14.00
2015,09,17,14,39,14.00
2015,09,17,14,40,14.00
2015,09,17,14,41,14.00
2015,09,17,14,42,13.90
2015,09,17,14,43,13.90
2015,09,17,14,44,13.80
2015,09,17,14,45,13.80
2015,09,17,14,46,13.80
2015,09,17,14,47,13.70
2015,09,17,14,48,13.70
2015,09,17,14,49,13.70
2015,09,17,14,50,13.70
2015,09,17,14,51,13.70
2015,09,17,14,52,13.70
2015,09,17,14,53,13.70
2015,09,17,14,54,13.70
2015,09,17,14,55,13.80
2015,09,17,14,56,13.80
2015,09,17,14,57,13.90
2015,09,17,14,58,13.90
2015,09,17,14,59,14.00
2015,09,17,15,00,14.00
2015,09,17,15,01,14.00
2015,09,17,15,02,14.00
2015,09,17,15,03,14.00
2015,09,17,15,04,14.10
2015,09,17,15,05,14.10
2015,09,17,15,06,14.10
2015,09,17,15,07,14.10
2015,09,17,15,08,14.00
2015,09,17,15,09,14.00
2015,09,17,15,10,14.00
2015,09,17,15,11,13.90
2015,09,17,15,12,13.90
2015,09,17,15,13,13.90
2015,09,17,15,14,13.90
2015,09,17,15,15,13.90
2015,09,17,15,16,13.80
2015,09,17,15,17,13.80
2015,09,17,15,18,13.80
2015,09,17,15,19,13.80
2015,09,17,15,20,13.80
2015,09,17,15,21,13.80
2015,09,17,15,22,13.90
2015,09,17,15,23,13.90
2015,09,17,15,24,13.90
2015,09,17,15,25,13.90
2015,09,17,15,26,13.90
2015,09,17,15,27,13.90
2015,09,17,15,28,13.80
2015,09,17,15,29,13.80
2015,09,17,15,30,13.80
2015,09,17,15,31,13.80
2015,09,17,15,32,13.80
2015,09,17,15,33,13.80
2015,09,17,15,34,13.80
2015,09,17,15,35,13.80
2015,09,17,15,36,13.80
2015,09,17,15,37,13.80
2015,09,17,15,38,13.80
2015,09,17,15,39,13.90
2015,09,17,15,40,13.90
2015,09,17,15,41,13.90
2015,09,17,15,42,13.90
2015,09,17,15,43,13.90
2015,09,17,15,44,13.90
2015,09,17,15,45,13.90
2015,09,17,15,46,13.90
2015,09,17,15,47,13.90
2015,09,17,15,48,14.00
2015,09,17,15,49,14.00
2015,09,17,15,50,14.00
2015,09,17,15,51,14.00
2015,09,17,15,52,13.90
2015,09,17,15,53,13.90
2015,09,17,15,54,13.90
2015,09,17,15,55,13.90
2015,09,17,15,56,13.80
2015,09,17,15,57,13.80
2015,09,17,15,58,13.80
2015,09,17,15,59,13.80
2015,09,17,16,00,13.80
2015,09,17,16,01,13.80
2015,09,17,16,02,13.80
2015,09,17,16,03,13.80
2015,09,17,16,04,13.80
2015,09,17,16,05,13.90
2015,09,17,16,06,13.90
2015,09,17,16,07,13.90
2015,09,17,16,08,14.00
2015,09,17,16,09,14.00
2015,09,17,16,10,14.10
2015,09,17,16,11,14.10
2015,09,17,16,12,14.10
2015,09,17,16,13,14.20
2015,09,17,16,14,14.20
2015,09,17,16,15,14.20
2015,09,17,16,16,14.20
2015,09,17,16,17,14.20
2015,09,17,16,18,14.20
2015,09,17,16,19,14.20
2015,09,17,16,20,14.20
2015,09,17,16,21,14.20
2015,09,17,16,22,14.20
2015,09,17,16,23,14.20
2015,09,17,16,24,14.20
2015,09,17,16,25,14.30
2015,09,17,16,26,14.30
2015,09,17,16,27,14.30
2015,09,17,16,28,14.30
2015,09,17,16,29,14.30
2015,09,17,16,30,14.30
2015,09,17,16,31,14.30
2015,09,17,16,32,14.30
2015,09,17,16,33,14.30
2015,09,17,16,34,14.20
2015,09,17,16,35,14.20
2015,09,17,16,36,14.20
2015,09,17,16,37,14.20
2015,09,17,16,38,14.20
2015,09,17,16,39,14.10
2015,09,17,16,40,14.10
2015,09,17,16,41,14.10
2015,09,17,16,42,14.00
2015,09,17,16,43,14.00
2015,09,17,16,44,13.90
2015,09,17,16,45,13.90
2015,09,17,16,46,13.90
2015,09,17,16,47,13.80
2015,09,17,16,48,13.80
2015,09,17,16,49,13.80
2015,09,17,16,50,13.70
2015,09,17,16,51,13.70
2015,09,17,16,52,13.70
2015,09,17,16,53,13.60
2015,09,17,16,54,13.60
2015,09,17,16,55,13.60
2015,09,17,16,56,13.60
2015,09,17,16,57,13.60
2015,09,17,16,58,13.50
2015,09,17,16,59,13.50
2015,09,17,17,00,13.50
2015,09,17,17,01,13.50
2015,09,17,17,02,13.50
2015,09,17,17,03,13.50
2015,09,17,17,04,13.50
2015,09,17,17,05,13.50
2015,09,17,17,06,13.50
2015,09,17,17,07,13.50
2015,09,17,17,08,13.50
2015,09,17,17,09,13.50
2015,09,17,17,10,13.50
2015,09,17,17,11,13.50
2015,09,17,17,12,13.50
2015,09,17,17,13,13.50
2015,09,17,17,14,13.50
2015,09,17,17,15,13.50
2015,09,17,17,16,13.50
2015,09,17,17,17,13.50
2015,09,17,17,18,13.50
2015,09,17,17,19,13.60
2015,09,17,17,20,13.60
2015,09,17,17,21,13.60
2015,09,17,17,22,13.60
2015,09,17,17,23,13.60
2015,09,17,17,24,13.70
2015,09,17,17,25,13.70
2015,09,17,17,26,13.70
2015,09,17,17,27,13.60
2015,09,17,17,28,13.60
2015,09,17,17,29,13.60
2015,09,17,17,30,13.60
2015,09,17,17,31,13.60
2015,09,17,17,32,13.50
2015,09,17,17,33,13.50
2015,09,17,17,34,13.50
2015,09,17,17,35,13.50
2015,09,17,17,36,13.50
2015,09,17,17,37,13.50
2015,09,17,17,38,13.60
2015,09,17,17,39,13.60
2015,09,17,17,40,13.60
2015,09,17,17,41,13.60
2015,09,17,17,42,13.60
2015,09,17,17,43,13.60
2015,09,17,17,44,13.60
2015,09,17,17,45,13.60
2015,09,17,17,46,13.60
2015,09,17,17,47,13.60
2015,09,17,17,48,13.60
2015,09,17,17,49,13.60
2015,09,17,17,50,13.60
2015,09,17,17,51,13.60
2015,09,17,17,52,13.60
2015,09,17,17,53,13.60
2015,09,17,17,54,13.60
2015,09,17,17,55,13.60
2015,09,17,17,56,13.60
2015,09,17,17,57,13.50
2015,09,17,17,58,13.50
2015,09,17,17,59,13.50
2015,09,17,18,00,13.40
2015,09,17,18,01,13.40
2015,09,17,18,02,13.40
2015,09,17,18,03,13.40
2015,09,17,18,04,13.40
2015,09,17,18,05,13.40
2015,09,17,18,06,13.40
2015,09,17,18,07,13.40
2015,09,17,18,08,13.30
2015,09,17,18,09,13.30
2015,09,17,18,10,13.30
2015,09,17,18,11,13.30
2015,09,17,18,12,13.30
2015,09,17,18,13,13.30
2015,09,17,18,14,13.30
2015,09,17,18,15,13.30
2015,09,17,18,16,13.30
2015,09,17,18,17,13.30
2015,09,17,18,18,13.30